Regional Weather Roundup
Issued by NWS Grand Forks, ND

Home | Current Version | Previous Version | Graphics & Text | Print | Product List | Glossary On
Versions: 1 2 3 4 5 6 7 8 9 10 11 12 13 14 15 16 17 18 19 20 21 22 23 24 25 26 27 28 29 30 31 32 33 34 35 36 37 38 39 40 41 42 43 44 45 46 47 48 49 50
000
ASUS43 KFGF 010031
RWRFGF
PRAIRIE TO PINES  WEATHER ROUNDUP
NATIONAL WEATHER SERVICE EASTERN NORTH DAKOTA/GRAND FORKS ND
600 PM CST SAT FEB 28 2015

 **SATELLITE DATA USED TO AUGMENT SKY COVER AT AUTOMATED STATIONS**
 *****  WEATHER ACROSS EASTERN NORTH DAKOTA  *****

CITY           SKY/WX    TMP DP  RH WIND       PRES   REMARKS
GRAND FORKS    FLURRIES  19  12  73 W14       30.11R WCI   6
6HR MIN TEMP:  16; 6HR MAX TEMP:  23; 6HR PCP: TRACE;

GRAND FRKS AFB CLOUDY    19  10  68 W15       30.12R WCI   5
GRAND FRKS NWS   N/A     19 N/A N/A W6          N/A  WCI  11
DEVILS LAKE    CLEAR      7  -2  66 W14       30.11R WCI -10
6HR MIN TEMP:   9; 6HR MAX TEMP:  19;

FARGO          CLOUDY    24  16  71 S12       30.15R WCI  13
WAHPETON ARPT  CLOUDY    23  18  80 S10       30.18S WCI  12
$$

 ***** WEATHER ACROSS CENTRAL AND WESTERN NORTH DAKOTA  *****

CITY           SKY/WX    TMP DP  RH WIND       PRES   REMARKS
BISMARCK       CLEAR     17   2  51 NW13      30.17R WCI   4
6HR MIN TEMP:  17; 6HR MAX TEMP:  22;

MINOT          CLEAR     10   1  67 W16       30.13S WCI  -7
6HR MIN TEMP:   9; 6HR MAX TEMP:  13;

JAMESTOWN      MOCLDY    14   5  67 NW13      30.14R WCI   0
6HR MIN TEMP:  14; 6HR MAX TEMP:  23;

MINOT AFB      CLEAR      9   3  78 NW12      30.12S WCI  -6
GARRISON         N/A     11   2  67 NW15      30.13S WCI  -5
WILLISTON      CLEAR     15   3  59 NW6       30.14F WCI   6
6HR MIN TEMP:  12; 6HR MAX TEMP:  17; 6HR PCP: TRACE;

DICKINSON      PTCLDY    17   4  56 NW16      30.08S WCI   2
6HR MIN TEMP:  15; 6HR MAX TEMP:  21;

HETTINGER      MOCLDY    18   4  54 W18       30.12R WCI   2
6HR MIN TEMP:  17; 6HR MAX TEMP:  21;

$$

 *****  OTHER AIRPORT OBSERVATIONS IN OUR AREA  *****

CITY           SKY/WX    TMP DP  RH WIND       PRES   REMARKS
WALHALLA         N/A     14   7  73 W12       30.09S WCI   0
GRAFTON AIRPOR NOT AVBL
VALLEY CITY AR FLURRIES  16  10  79 NW14      30.14R WCI   1
CANDO          FAIR       5   0  78 W14       30.11R WCI -12
CAVALIER APRT  FAIR      14   7  73 W10       30.09S WCI   1
GWINNER        CLOUDY    27  18  69 W9        30.15R WCI  17
SHEYENNE NWR     N/A     25  15  64 SW7       29.95S WCI  17
ROLLA          FAIR       7  -2  66 NW10      30.06R WCI  -8
 ***** THE ABOVE OBSERVATIONS ARE NON NWS ARE NOT QUALITY
       CONTROLLED AND MAY MIS-REPORT RAIN FOR SNOW...
$$

  *****  WEATHER ACROSS NORTHERN MINNESOTA  *****

CITY           SKY/WX    TMP DP  RH WIND       PRES   REMARKS
FLAG ISLAND    LGT SNOW  19  18  93 S12       30.05F WCI   7
WARROAD        LGT SNOW  21  18  86 S6        30.07F WCI  14
ROSEAU         LGT SNOW  21  18  86 SW6       30.06F VSB 1   WCI  14
HALLOCK        CLOUDY    19  16  86 W7        30.08S WCI  10
THF RVR FALLS  CLOUDY    21  18  86 SW14      30.09S WCI   8
6HR MIN TEMP:  18; 6HR MAX TEMP:  23;

BAUDETTE       CLOUDY    22  10  60 S16       30.07F WCI   8
6HR MIN TEMP:  18; 6HR MAX TEMP:  24;

WASKISH        CLOUDY    21  10  63 S8        30.12S WCI  12
CROOKSTON      CLOUDY    21  18  86 SW14      30.12S WCI   8
STEPHEN NDAWN    N/A     19  18  93 W8          N/A  WCI   9
GREENBUSH NDAW   N/A     19  18  93 MISG        N/A
$$
  *****  WEATHER ACROSS CENTRAL AND WEST MINNESOTA  *****

CITY           SKY/WX    TMP DP  RH WIND       PRES   REMARKS
FOSSTON        LGT SNOW  18  16  93 S20       30.11F WCI   1
BEMIDJI        MOCLDY    19  12  73 S13G18    30.13S WCI   7
PARK RAPIDS    LGT SNOW  19  12  74 S13       30.15F WCI   6
6HR MIN TEMP:  19; 6HR MAX TEMP:  23; 6HR PCP: TRACE;

ELBOW LAKE     CLOUDY    19  14  79 S16       30.19S WCI   5
6HR MIN TEMP:  20; 6HR MAX TEMP:  23;

WADENA         CLOUDY    18  12  79 S12       30.18F WCI   5
DETROIT LAKES  LGT SNOW  21  18  86 S13G18    30.14F WCI   9
MOORHEAD       LGT SNOW  25  21  86 S10       30.16S WCI  15
FERGUS FALLS   LGT SNOW  21  14  73 S17       30.21F WCI   7
MORRIS MN      CLOUDY    19  12  73 S12       30.20S WCI   7
STAPLES        LGT SNOW  18  12  79 S13       30.21S WCI   4
$$
  *****  WEATHER ELSEWHERE ACROSS MINNESOTA  *****

CITY           SKY/WX    TMP DP  RH WIND       PRES   REMARKS
DULUTH         PTCLDY    18   2  49 S10       30.22F WCI   6
6HR MIN TEMP:  17; 6HR MAX TEMP:  21;

INTRNTL FALLS  CLOUDY    21   2  43 SW9       30.12F WCI  11
6HR MIN TEMP:  21; 6HR MAX TEMP:  26;

ELY            CLEAR     18  -2  41 S9        30.18S WCI   6
CLOQUET        CLOUDY    18   1  49 S9G16     30.24S WCI   6
WHEATON        PTCLDY    21  14  73 SE13      30.20F WCI   9
BRAINERD       CLOUDY    17   8  67 S15       30.23S WCI   2
6HR MIN TEMP:  17; 6HR MAX TEMP:  21;

HIBBING        CLOUDY    20  -2  38 S8G17     30.19F WCI  10
6HR MIN TEMP:  18; 6HR MAX TEMP:  23;

ALEXANDRIA     LGT SNOW  19  12  74 S14G23    30.20F WCI   6
6HR MIN TEMP:  18; 6HR MAX TEMP:  21; 6HR PCP: TRACE;

SAINT CLOUD    CLOUDY    18   6  59 S20       30.28F WCI   2
6HR MIN TEMP:  18; 6HR MAX TEMP:  21;

MINNEAPOLIS    MOCLDY    14   3  61 S14       30.37F WCI  -1
6HR MIN TEMP:  14; 6HR MAX TEMP:  20;

$$

  *****  WEATHER ACROSS SOUTH DAKOTA  *****

CITY           SKY/WX    TMP DP  RH WIND       PRES   REMARKS
SIOUX FALLS    PTCLDY    26  13  57 S13       30.21R WCI  15
6HR MIN TEMP:  19; 6HR MAX TEMP:  27;

BROOKINGS      NOT AVBL
WATERTOWN      MOCLDY    23  12  62 S8        30.13S WCI  14
6HR MIN TEMP:  18; 6HR MAX TEMP:  25;

HURON          CLOUDY    29  19  66 NW15      30.14R WCI  18
6HR MIN TEMP:  24; 6HR MAX TEMP:  32;

SISSETON         N/A     26  15  63 S10       30.15S WCI  16
ABERDEEN       CLOUDY    26  16  65 W8        30.15R WCI  18
6HR MIN TEMP:  21; 6HR MAX TEMP:  29; 6HR PCP: TRACE;

MITCHELL       PTCLDY    32  11  41 S8        30.16F WCI  25
PIERRE         CLEAR     27   8  44 N12       30.15R WCI  17
6HR MIN TEMP:  27; 6HR MAX TEMP:  33;

MOBRIDGE       CLEAR     21   8  57 N13       30.14R WCI   9
RAPID CITY     CLEAR     21  10  62 N13       30.10S WCI   9
6HR MIN TEMP:  20; 6HR MAX TEMP:  23;

$$

  *****  SOME WEATHER IN NEARBY STATES *****

CITY           SKY/WX    TMP DP  RH WIND       PRES   REMARKS
GLASGOW MT     CLEAR     23   5  46 W18       30.12F WCI   9
6HR MIN TEMP:  13; 6HR MAX TEMP:  25;

GREAT FALLS MT MOSUNNY   24   7  48 W12G17    30.13R WCI  13
6HR MIN TEMP:  16; 6HR MAX TEMP:  24;

CHEYENNE WY    CLOUDY    20  11  68 E7        29.91R WCI  11
6HR MIN TEMP:  17; 6HR MAX TEMP:  22;

SCOTTSBLUFF NE PTCLDY    31  10  41 E9        30.02R WCI  23
6HR MIN TEMP:  24; 6HR MAX TEMP:  34;

OMAHA NE       LGT SNOW  23  16  74 S12       30.35F FOG     WCI  12
6HR MIN TEMP:  21; 6HR MAX TEMP:  23; 6HR PCP: TRACE;

DES MOINES IA  LGT SNOW  22  17  81 SE6       30.39F WCI  14
6HR MIN TEMP:  20; 6HR MAX TEMP:  24; 6HR PCP:  0.02;

DAVENPORT IA   LGT SNOW  15  10  80 E9        30.50F WCI   3
6HR MIN TEMP:  15; 6HR MAX TEMP:  19; 6HR PCP: TRACE;

CHICAGO IL     CLOUDY    19   4  51 S7        30.52F WCI  10
6HR MIN TEMP:  17; 6HR MAX TEMP:  21;

EAU CLAIRE WI  CLOUDY    16  -1  47 S10       30.40F WCI   4
6HR MIN TEMP:  13; 6HR MAX TEMP:  18;

LA CROSSE WI   CLOUDY    18   0  45 S10       30.45F WCI   6
6HR MIN TEMP:  12; 6HR MAX TEMP:  19;

$$

  *****  SOME NATIONAL WEATHER *****

CITY           SKY/WX    TMP DP  RH WIND       PRES   REMARKS
LA GUARDIA NY  PTCLDY    29   2  31 W3        30.75R
6HR MIN TEMP:  24; 6HR MAX TEMP:  30;

RALEIGH NC     MOCLDY    34  13  41 NE6       30.70R
6HR MIN TEMP:  33; 6HR MAX TEMP:  37;

ATLANTA GA     PTCLDY    49  29  46 E12       30.49R
6HR MIN TEMP:  49; 6HR MAX TEMP:  56;

NEW ORLEANS LA MOCLDY    57  47  69 E10       30.32R
6HR MIN TEMP:  57; 6HR MAX TEMP:  62;

OKLAHOMA CITY  FRZ DRZL  27  21  80 NE3       30.29S FOG
6HR MIN TEMP:  24; 6HR MAX TEMP:  27; 6HR PCP:  0.01;

ALBUQUERQUE NM PTSUNNY   35  26  69 N15       29.91R
6HR MIN TEMP:  27; 6HR MAX TEMP:  38;

SALT LAKE CITY LGT RAIN  37  31  78 NW6       29.76R
6HR MIN TEMP:  37; 6HR MAX TEMP:  45; 6HR PCP: TRACE;




USA.gov is the U.S. government's official web portal to all federal, state and local government web resources and services.